SWA3853 KBWI-KCMH

Flight info

Callsign SWA3853
Flight time 0h 54m
Altitude 30000
Route FOXHL1 RAMAY Q72 HACKS SCRLT2
Aircraft B738/M-SADE2E3GIJ4RWZ/LB1D1

Departure

Time 2026-05-05 18:32
Airport Baltimore/Washington International Thurgood Marshall Airport (KBWI)

Arrival

Time 2026-05-05 19:26
Airport John Glenn Columbus International Airport (KCMH)
Time Latitude Longitude Altitude Speed Heading
2026-05-05 17:59 39.17714 -76.67047 155 ft 0 kts 91°
2026-05-05 18:22 39.17714 -76.67053 155 ft 3 kts 91°
2026-05-05 18:22 39.17714 -76.67088 155 ft 4 kts 89°
2026-05-05 18:22 39.17714 -76.67123 155 ft 4 kts 92°
2026-05-05 18:23 39.17718 -76.67155 155 ft 4 kts 121°
2026-05-05 18:23 39.17724 -76.67166 155 ft 1 kts 144°
2026-05-05 18:26 39.17724 -76.67165 155 ft 1 kts 144°
2026-05-05 18:27 39.17712 -76.67153 155 ft 3 kts 143°
2026-05-05 18:27 39.17691 -76.67134 155 ft 4 kts 143°
2026-05-05 18:27 39.17669 -76.67113 155 ft 5 kts 143°
2026-05-05 18:27 39.17626 -76.67072 155 ft 11 kts 144°
2026-05-05 18:28 39.17536 -76.66889 155 ft 13 kts 94°
2026-05-05 18:28 39.17529 -76.66773 155 ft 14 kts 94°
2026-05-05 18:28 39.17520 -76.66634 153 ft 17 kts 95°
2026-05-05 18:29 39.17565 -76.66529 154 ft 13 kts 40°
2026-05-05 18:29 39.17549 -76.66422 153 ft 13 kts 125°
2026-05-05 18:29 39.17496 -76.66318 149 ft 16 kts 121°
2026-05-05 18:29 39.17457 -76.66204 148 ft 13 kts 97°
2026-05-05 18:30 39.17449 -76.66084 148 ft 15 kts 94°
2026-05-05 18:30 39.17441 -76.65926 145 ft 20 kts 93°
2026-05-05 18:30 39.17430 -76.65742 140 ft 21 kts 94°
2026-05-05 18:30 39.17420 -76.65577 141 ft 13 kts 102°
2026-05-05 18:31 39.17353 -76.65521 140 ft 13 kts 186°
2026-05-05 18:31 39.17285 -76.65574 140 ft 12 kts 252°
2026-05-05 18:31 39.17284 -76.65606 140 ft 0 kts 271°
2026-05-05 18:32 39.17286 -76.65673 140 ft 31 kts 273°
2026-05-05 18:32 39.17321 -76.66283 148 ft 103 kts 274°
2026-05-05 18:32 39.17383 -76.67482 174 ft 161 kts 270°
2026-05-05 18:32 39.17490 -76.68991 785 ft 172 kts 272°
2026-05-05 18:33 39.17618 -76.70524 1678 ft 169 kts 271°
2026-05-05 18:33 39.17710 -76.72050 2447 ft 179 kts 269°
2026-05-05 18:33 39.17828 -76.73744 3053 ft 196 kts 270°
2026-05-05 18:33 39.17933 -76.75571 3273 ft 218 kts 266°
2026-05-05 18:34 39.18176 -76.77565 3849 ft 232 kts 279°
2026-05-05 18:34 39.18603 -76.79633 4342 ft 249 kts 280°
2026-05-05 18:34 39.19046 -76.81861 4999 ft 262 kts 280°
2026-05-05 18:34 39.19495 -76.84113 6057 ft 254 kts 279°
2026-05-05 18:35 39.19929 -76.86302 7033 ft 252 kts 279°
2026-05-05 18:35 39.20352 -76.88512 7855 ft 254 kts 278°
2026-05-05 18:35 39.20778 -76.90729 8719 ft 255 kts 278°
2026-05-05 18:35 39.21207 -76.92938 9611 ft 255 kts 278°
2026-05-05 18:36 39.21638 -76.95164 10375 ft 259 kts 279°
2026-05-05 18:36 39.22036 -76.97527 10578 ft 280 kts 272°
2026-05-05 18:36 39.22130 -77.00133 10771 ft 301 kts 267°
2026-05-05 18:36 39.22128 -77.02927 10974 ft 321 kts 267°
2026-05-05 18:37 39.22138 -77.05861 11485 ft 330 kts 268°
2026-05-05 18:37 39.22169 -77.08831 12184 ft 334 kts 268°
2026-05-05 18:37 39.22055 -77.11783 12859 ft 336 kts 257°
2026-05-05 18:37 39.21279 -77.14628 13597 ft 339 kts 244°
2026-05-05 18:38 39.19909 -77.17130 14214 ft 347 kts 230°
2026-05-05 18:38 39.18221 -77.19408 14831 ft 353 kts 228°
2026-05-05 18:38 39.16468 -77.21660 15508 ft 358 kts 227°
2026-05-05 18:38 39.14696 -77.23933 16147 ft 363 kts 227°
2026-05-05 18:39 39.12902 -77.26254 16761 ft 368 kts 227°
2026-05-05 18:39 39.11093 -77.28621 17378 ft 373 kts 228°
2026-05-05 18:39 39.09269 -77.31020 18014 ft 377 kts 228°
2026-05-05 18:39 39.07420 -77.33455 18563 ft 382 kts 228°
2026-05-05 18:40 39.05685 -77.36055 19082 ft 384 kts 239°
2026-05-05 18:40 39.04552 -77.39151 19630 ft 385 kts 254°
2026-05-05 18:40 39.04048 -77.42542 20198 ft 387 kts 262°
2026-05-05 18:40 39.03706 -77.46003 20706 ft 392 kts 263°
2026-05-05 18:41 39.03398 -77.49454 21199 ft 396 kts 263°
2026-05-05 18:41 39.03082 -77.52989 21720 ft 399 kts 263°
2026-05-05 18:41 39.02753 -77.56550 22236 ft 403 kts 263°
2026-05-05 18:41 39.02411 -77.60136 22726 ft 406 kts 263°
2026-05-05 18:42 39.02057 -77.63764 23200 ft 410 kts 263°
2026-05-05 18:42 39.01693 -77.67415 23647 ft 413 kts 263°
2026-05-05 18:42 39.01323 -77.71089 24059 ft 415 kts 263°
2026-05-05 18:42 39.00948 -77.74777 24492 ft 417 kts 263°
2026-05-05 18:43 39.00571 -77.78486 24921 ft 419 kts 263°
2026-05-05 18:43 39.00191 -77.82210 25342 ft 421 kts 263°
2026-05-05 18:43 38.99808 -77.85950 25738 ft 423 kts 263°
2026-05-05 18:43 38.99423 -77.89703 26108 ft 425 kts 263°
2026-05-05 18:44 38.99035 -77.93470 26479 ft 427 kts 263°
2026-05-05 18:44 38.98643 -77.97263 26846 ft 429 kts 263°
2026-05-05 18:44 38.98249 -78.01067 27283 ft 429 kts 263°
2026-05-05 18:44 38.97855 -78.04849 27860 ft 426 kts 263°
2026-05-05 18:45 38.97462 -78.08615 28521 ft 421 kts 264°
2026-05-05 18:45 38.97074 -78.12335 29068 ft 419 kts 264°
2026-05-05 18:45 38.96686 -78.16037 29581 ft 418 kts 264°
2026-05-05 18:45 38.96297 -78.19733 29906 ft 418 kts 264°
2026-05-05 18:46 38.96293 -78.27113 29896 ft 415 kts 275°
2026-05-05 18:46 38.96850 -78.34482 29906 ft 414 kts 276°
2026-05-05 18:47 38.97389 -78.41838 29896 ft 413 kts 276°
2026-05-05 18:47 38.97878 -78.49189 29894 ft 413 kts 275°
2026-05-05 18:48 38.98343 -78.56540 29891 ft 412 kts 275°
2026-05-05 18:48 38.98799 -78.63880 29902 ft 412 kts 275°
2026-05-05 18:49 38.99252 -78.71226 29901 ft 412 kts 275°
2026-05-05 18:49 38.99701 -78.78585 29904 ft 413 kts 275°
2026-05-05 18:50 39.00143 -78.85901 29909 ft 413 kts 275°
2026-05-05 18:50 39.00584 -78.93272 29911 ft 414 kts 274°
2026-05-05 18:51 39.01020 -79.00648 29921 ft 413 kts 274°
2026-05-05 18:51 39.01452 -79.08016 29917 ft 413 kts 274°
2026-05-05 18:52 39.01878 -79.15372 29917 ft 413 kts 274°
2026-05-05 18:52 39.02326 -79.22725 29922 ft 412 kts 275°
2026-05-05 18:53 39.02815 -79.30089 29932 ft 412 kts 275°
2026-05-05 18:53 39.03295 -79.37369 29935 ft 411 kts 274°
2026-05-05 18:54 39.03769 -79.44697 29943 ft 411 kts 274°
2026-05-05 18:54 39.04235 -79.52026 29956 ft 411 kts 274°
2026-05-05 18:55 39.04697 -79.59358 29937 ft 410 kts 274°
2026-05-05 18:55 39.05152 -79.66663 29946 ft 410 kts 274°
2026-05-05 18:56 39.05603 -79.73974 29935 ft 410 kts 274°
2026-05-05 18:56 39.06045 -79.81228 29945 ft 409 kts 274°
2026-05-05 18:57 39.06487 -79.88536 29944 ft 409 kts 274°
2026-05-05 18:57 39.06924 -79.95840 29941 ft 409 kts 274°
2026-05-05 18:58 39.07354 -80.03137 29938 ft 408 kts 273°
2026-05-05 18:58 39.07782 -80.10427 29921 ft 409 kts 273°
2026-05-05 18:59 39.08205 -80.17723 29914 ft 408 kts 273°
2026-05-05 18:59 39.08623 -80.25006 29915 ft 408 kts 273°
2026-05-05 19:00 39.09034 -80.32296 29911 ft 408 kts 273°
2026-05-05 19:00 39.09421 -80.39571 29905 ft 408 kts 273°
2026-05-05 19:01 39.09801 -80.46857 29903 ft 407 kts 273°
2026-05-05 19:01 39.10177 -80.54118 29902 ft 406 kts 273°
2026-05-05 19:02 39.10548 -80.61336 29889 ft 407 kts 273°
2026-05-05 19:02 39.10917 -80.68600 29900 ft 407 kts 273°
2026-05-05 19:03 39.11282 -80.75873 29898 ft 407 kts 273°
2026-05-05 19:03 39.11641 -80.83133 29887 ft 407 kts 273°
2026-05-05 19:04 39.11997 -80.90402 29898 ft 407 kts 273°
2026-05-05 19:04 39.12349 -80.97680 29892 ft 406 kts 273°
2026-05-05 19:05 39.12695 -81.04938 29891 ft 405 kts 272°
2026-05-05 19:05 39.13682 -81.12037 29894 ft 407 kts 287°
2026-05-05 19:06 39.15746 -81.18851 29455 ft 407 kts 289°
2026-05-05 19:06 39.16787 -81.22217 28924 ft 401 kts 289°
2026-05-05 19:06 39.17808 -81.25535 28407 ft 395 kts 288°
2026-05-05 19:07 39.18810 -81.28815 27857 ft 392 kts 288°
2026-05-05 19:07 39.19480 -81.31020 27496 ft 389 kts 288°
2026-05-05 19:07 39.20775 -81.35299 26799 ft 385 kts 288°
2026-05-05 19:07 39.21744 -81.38512 26279 ft 383 kts 288°
2026-05-05 19:08 39.22705 -81.41707 25757 ft 381 kts 288°
2026-05-05 19:08 39.23661 -81.44892 25201 ft 381 kts 287°
2026-05-05 19:08 39.24619 -81.48084 24682 ft 380 kts 287°
2026-05-05 19:08 39.25573 -81.51268 24145 ft 381 kts 287°
2026-05-05 19:09 39.26515 -81.54417 23619 ft 381 kts 287°
2026-05-05 19:09 39.27467 -81.57602 23013 ft 381 kts 287°
2026-05-05 19:09 39.28419 -81.60789 22474 ft 379 kts 287°
2026-05-05 19:09 39.29363 -81.63954 21937 ft 377 kts 287°
2026-05-05 19:10 39.30302 -81.67101 21418 ft 374 kts 287°
2026-05-05 19:10 39.31233 -81.70227 20903 ft 372 kts 287°
2026-05-05 19:10 39.32156 -81.73330 20403 ft 369 kts 287°
2026-05-05 19:10 39.33071 -81.76412 19901 ft 366 kts 287°
2026-05-05 19:11 39.33981 -81.79478 19409 ft 364 kts 287°
2026-05-05 19:11 39.34884 -81.82526 18895 ft 362 kts 287°
2026-05-05 19:11 39.35780 -81.85553 18393 ft 360 kts 287°
2026-05-05 19:11 39.36371 -81.87553 18043 ft 359 kts 287°
2026-05-05 19:12 39.37256 -81.90550 17489 ft 356 kts 287°
2026-05-05 19:12 39.38135 -81.93528 17004 ft 352 kts 287°
2026-05-05 19:12 39.39280 -81.97410 16455 ft 345 kts 286°
2026-05-05 19:12 39.40129 -82.00292 15984 ft 342 kts 286°
2026-05-05 19:13 39.40700 -82.02235 15670 ft 340 kts 286°
2026-05-05 19:13 39.41537 -82.05085 15217 ft 338 kts 286°
2026-05-05 19:13 39.42369 -82.07922 14746 ft 336 kts 286°
2026-05-05 19:13 39.43195 -82.10741 14276 ft 334 kts 286°
2026-05-05 19:14 39.44002 -82.13496 13833 ft 332 kts 286°
2026-05-05 19:14 39.44816 -82.16284 13314 ft 331 kts 286°
2026-05-05 19:14 39.45627 -82.19060 12836 ft 328 kts 285°
2026-05-05 19:14 39.46432 -82.21816 12366 ft 326 kts 285°
2026-05-05 19:15 39.47229 -82.24549 11905 ft 324 kts 285°
2026-05-05 19:15 39.48021 -82.27267 11457 ft 322 kts 286°
2026-05-05 19:15 39.48809 -82.29974 11017 ft 320 kts 285°
2026-05-05 19:15 39.49597 -82.32639 10753 ft 314 kts 289°
2026-05-05 19:16 39.50713 -82.35035 10596 ft 311 kts 302°
2026-05-05 19:16 39.52238 -82.37016 10445 ft 310 kts 316°
2026-05-05 19:16 39.53960 -82.38666 10307 ft 303 kts 318°
2026-05-05 19:16 39.55657 -82.40230 10173 ft 295 kts 318°
2026-05-05 19:17 39.57341 -82.41721 9756 ft 299 kts 323°
2026-05-05 19:17 39.59108 -82.43002 9581 ft 286 kts 325°
2026-05-05 19:17 39.60907 -82.44239 9016 ft 290 kts 326°
2026-05-05 19:17 39.62703 -82.45465 8623 ft 292 kts 326°
2026-05-05 19:18 39.64491 -82.46698 8305 ft 290 kts 326°
2026-05-05 19:18 39.66238 -82.47912 8007 ft 287 kts 326°
2026-05-05 19:18 39.67996 -82.49143 7729 ft 286 kts 326°
2026-05-05 19:18 39.69747 -82.50375 7420 ft 285 kts 326°
2026-05-05 19:19 39.71308 -82.51477 7152 ft 284 kts 325°
2026-05-05 19:19 39.73101 -82.52748 6862 ft 282 kts 325°
2026-05-05 19:19 39.74817 -82.53966 6568 ft 282 kts 325°
2026-05-05 19:19 39.76532 -82.55186 6275 ft 281 kts 325°
2026-05-05 19:20 39.78257 -82.56414 5956 ft 282 kts 326°
2026-05-05 19:20 39.79971 -82.57635 5658 ft 281 kts 325°
2026-05-05 19:20 39.81688 -82.58858 5350 ft 280 kts 325°
2026-05-05 19:20 39.83383 -82.60066 5056 ft 275 kts 325°
2026-05-05 19:21 39.85023 -82.61233 4788 ft 270 kts 324°
2026-05-05 19:21 39.86666 -82.62407 4499 ft 269 kts 325°
2026-05-05 19:21 39.88306 -82.63580 4255 ft 266 kts 324°
2026-05-05 19:21 39.89902 -82.64719 4135 ft 259 kts 325°
2026-05-05 19:22 39.91458 -82.65831 4043 ft 251 kts 324°
2026-05-05 19:22 39.92946 -82.66892 4017 ft 235 kts 324°
2026-05-05 19:22 39.94338 -82.67884 3967 ft 219 kts 323°
2026-05-05 19:22 39.95623 -82.68800 3970 ft 205 kts 323°
2026-05-05 19:23 39.96860 -82.69690 3993 ft 202 kts 321°
2026-05-05 19:23 39.97757 -82.70904 3988 ft 173 kts 282°
2026-05-05 19:23 39.98079 -82.72356 3992 ft 165 kts 276°
2026-05-05 19:23 39.98309 -82.73852 3700 ft 173 kts 274°
2026-05-05 19:24 39.98486 -82.75400 3352 ft 171 kts 269°
2026-05-05 19:24 39.98585 -82.76928 2940 ft 170 kts 268°
2026-05-05 19:24 39.98667 -82.78448 2526 ft 167 kts 269°
2026-05-05 19:24 39.98749 -82.79896 2369 ft 152 kts 268°
2026-05-05 19:25 39.98816 -82.81276 2230 ft 150 kts 268°
2026-05-05 19:25 39.98903 -82.82619 1826 ft 147 kts 268°
2026-05-05 19:25 39.98962 -82.83922 1467 ft 147 kts 269°
2026-05-05 19:25 39.99052 -82.85255 1218 ft 148 kts 270°
2026-05-05 19:26 39.99122 -82.86639 974 ft 158 kts 270°
2026-05-05 19:26 39.99207 -82.88019 829 ft 141 kts 267°
2026-05-05 19:26 39.99260 -82.89083 824 ft 87 kts 274°
2026-05-05 19:26 39.99288 -82.89596 824 ft 38 kts 274°
2026-05-05 19:27 39.99313 -82.89901 820 ft 33 kts 280°
2026-05-05 19:27 39.99379 -82.90117 823 ft 23 kts 301°
2026-05-05 19:27 39.99423 -82.90202 823 ft 11 kts 307°
2026-05-05 19:27 39.99497 -82.90185 824 ft 16 kts 74°
2026-05-05 19:28 39.99494 -82.90022 824 ft 20 kts 95°
2026-05-05 19:28 39.99482 -82.89821 824 ft 24 kts 94°
2026-05-05 19:28 39.99468 -82.89595 820 ft 27 kts 94°
2026-05-05 19:28 39.99456 -82.89367 824 ft 22 kts 93°
2026-05-05 19:29 39.99461 -82.89201 822 ft 16 kts 54°
2026-05-05 19:29 39.99551 -82.89140 824 ft 14 kts 64°
2026-05-05 19:29 39.99548 -82.89009 824 ft 15 kts 94°
2026-05-05 19:29 39.99574 -82.88900 824 ft 13 kts 16°
2026-05-05 19:30 39.99614 -82.88846 824 ft 5 kts 96°
2026-05-05 19:30 39.99608 -82.88789 824 ft 9 kts 95°
2026-05-05 19:30 39.99601 -82.88673 824 ft 15 kts 95°
2026-05-05 19:30 39.99598 -82.88604 824 ft 2 kts 94°
2026-05-05 19:31 39.99596 -82.88565 824 ft 8 kts 94°
2026-05-05 19:31 39.99622 -82.88511 824 ft 8 kts 20°
2026-05-05 19:31 39.99641 -82.88507 824 ft 0 kts
2026-05-05 19:31 39.99644 -82.88507 824 ft 1 kts
2026-05-05 19:32 39.99645 -82.88507 824 ft 0 kts